Theta_e
348 358 365 367 367 365 363 362 362 360 360 361 362 364 364 363 363 363 363 363 362 362 359 359 358 358 357 356 354 352 351 349 349 349 349 350 350 347 351 343 340 335 340
350 357 364 366 367 365 363 362 362 361 361 362 362 363 363 363 363 363 363 363 362 360 359 358 358 358 357 356 354 353 352 351 349 348 348 348 349 345 343 342 341 338 341
348 356 360 365 366 365 362 362 362 361 361 362 363 363 363 363 363 363 363 363 363 360 360 359 358 358 358 356 354 353 352 351 350 348 347 340 340 345 344 343 342 342 341
345 352 358 365 365 365 363 362 361 361 362 362 362 363 362 362 362 362 362 363 363 360 360 359 359 358 358 356 354 353 353 352 351 351 348 347 340 344 346 345 343 342 341
343 353 358 364 365 365 364 363 362 362 362 362 362 362 362 361 361 362 363 363 363 361 360 359 358 359 358 356 356 356 356 355 356 355 352 350 337 344 346 345 345 343 341
348 351 360 362 364 365 364 363 363 362 362 362 362 362 361 361 360 360 362 363 363 362 361 361 361 360 360 359 358 358 358 358 357 349 343 350 338 349 348 347 345 342 342
352 353 357 362 362 364 364 364 363 363 362 362 361 361 361 360 359 359 360 360 361 362 362 362 361 361 360 360 359 358 358 357 350 345 343 344 339 350 350 348 345 343 342
351 352 352 360 361 362 363 363 363 362 362 361 361 361 360 359 358 358 359 359 359 360 360 361 360 359 359 358 358 358 358 357 351 346 341 342 346 352 352 351 346 344 343
351 351 351 354 356 360 361 361 362 362 361 361 359 359 358 359 357 357 358 358 358 359 359 359 359 359 359 358 358 358 358 357 349 348 346 342 352 354 352 350 348 347 345
340 343 346 349 352 353 354 361 360 360 360 359 359 359 358 358 358 359 357 358 359 359 359 359 359 359 359 359 358 358 359 359 351 349 347 342 353 354 354 352 350 349 347
337 339 335 339 344 343 348 354 358 358 359 358 358 358 355 350 348 352 355 356 357 357 359 359 359 359 359 358 352 348 351 346 349 348 346 350 355 356 356 354 353 350 348
335 329 330 333 338 347 350 350 350 351 351 351 350 348 348 345 343 346 350 355 356 357 358 357 358 356 354 333 334 338 338 340 346 348 349 353 357 359 359 356 355 353 350
335 337 331 334 341 347 345 348 347 345 346 346 345 346 347 348 345 349 349 350 349 354 350 354 346 343 337 337 335 334 339 340 344 350 349 355 357 360 359 358 356 355 353
336 337 330 333 341 342 343 339 343 348 349 348 348 351 346 347 338 336 336 345 347 347 346 344 337 332 337 339 337 334 336 334 342 346 344 354 356 359 360 359 357 356 354
332 332 330 328 328 343 335 342 343 345 340 346 341 332 331 334 330 330 331 330 331 330 346 341 334 336 336 335 334 334 331 330 342 340 339 350 355 356 359 360 358 355 355
330 332 334 328 335 343 342 341 339 339 332 332 330 330 330 333 328 327 328 329 325 327 328 334 338 338 336 333 332 337 334 332 342 336 338 348 354 352 354 358 359 358 358
339 338 336 336 336 333 333 336 335 337 331 328 327 327 327 325 323 325 326 324 322 324 326 328 327 328 330 337 337 335 331 331 336 340 342 345 347 351 353 354 358 356 355
333 334 333 335 333 331 330 331 332 329 330 327 327 324 326 325 322 323 322 322 322 323 323 324 323 321 322 322 322 323 326 331 332 333 336 338 345 346 350 353 353 353 355
329 330 330 330 329 329 330 329 328 326 326 327 324 325 322 325 325 325 323 324 325 325 324 323 322 322 321 321 323 320 322 327 329 331 333 335 337 340 338 347 350 348 350
329 329 330 330 330 331 331 329 328 327 326 325 323 323 323 325 327 323 327 326 325 323 325 322 322 323 321 320 323 321 323 325 323 326 330 336 339 337 335 336 339 341 347
326 326 327 328 326 328 325 324 325 325 326 327 330 325 324 326 328 325 326 326 325 324 325 325 323 320 318 320 317 316 318 318 320 327 333 332 334 332 330 333 333 335 339
325 325 323 322 321 326 323 323 323 324 327 328 327 328 326 327 326 328 325 325 326 325 322 321 323 320 319 317 315 311 308 314 320 325 328 329 327 329 328 332 332 332 334
319 320 319 319 318 322 322 320 319 317 319 320 321 326 326 328 327 325 326 324 324 325 325 323 324 321 316 317 315 312 309 308 313 320 323 328 325 322 325 328 329 329 331
313 317 319 319 317 320 320 317 315 314 313 316 317 319 321 324 325 327 327 326 328 327 325 324 325 321 319 315 315 317 315 315 311 309 317 319 324 327 324 325 323 326 329
312 312 316 318 315 316 315 315 314 311 313 314 317 317 316 317 318 321 320 318 320 324 325 323 324 323 319 317 315 312 312 311 311 314 310 313 320 324 321 321 323 322 325
309 310 309 309 315 315 314 315 313 312 313 312 311 311 312 314 317 317 319 316 315 316 318 320 321 322 320 318 318 316 312 308 307 307 305 305 307 321 318 321 320 321 325
Wind_Speed
4 7 11 14 13 14 14 15 14 14 13 10 9 10 11 12 12 13 13 11 10 10 11 11 11 12 11 11 11 11 12 12 12 12 13 13 15 16 12 16 14 11 15
12 6 12 13 15 14 14 13 12 12 14 11 11 9 9 10 11 10 10 10 9 10 10 9 10 10 10 8 7 8 9 9 9 9 11 11 13 14 14 14 14 11 13
12 9 10 13 14 14 13 14 12 11 11 10 9 10 8 8 9 9 8 8 9 8 7 8 8 8 8 6 4 4 5 5 5 5 9 4 3 14 13 12 12 12 12
11 9 8 12 13 14 14 14 13 11 12 11 9 9 9 6 7 7 7 7 7 8 7 6 5 6 5 5 2 2 1 1 2 5 5 4 4 8 15 12 11 11 11
11 10 10 13 12 12 12 13 14 12 11 10 10 8 9 8 5 5 6 5 6 6 6 4 3 4 3 2 1 4 6 4 6 7 7 6 6 9 15 13 10 9 8
7 5 12 15 13 12 12 11 12 12 12 11 10 9 8 8 7 5 4 5 4 4 5 4 3 2 2 2 3 5 7 10 11 5 5 4 10 13 15 14 12 9 10
8 8 6 15 14 12 12 11 10 10 10 10 10 10 8 8 8 7 6 5 5 4 4 4 3 3 3 3 4 6 8 11 8 7 6 8 10 18 16 15 15 13 10
10 8 5 8 10 11 12 12 11 11 10 10 10 10 10 10 9 9 8 7 7 7 6 6 5 5 5 5 6 7 9 12 10 8 3 4 11 18 19 17 17 15 13
12 10 7 6 5 6 8 10 9 8 8 8 8 7 7 6 7 8 8 9 9 10 9 8 7 5 4 6 7 9 12 14 8 7 12 2 16 17 18 18 18 17 15
15 16 14 10 1 2 2 3 5 6 6 5 4 5 6 6 6 8 9 9 10 11 10 9 8 5 4 5 8 11 15 18 9 8 9 4 17 19 18 18 18 18 17
12 10 9 7 8 2 4 4 3 4 5 7 6 6 5 4 6 8 9 13 14 12 10 8 2 3 3 3 9 13 10 6 10 7 7 13 19 21 17 16 17 17 17
5 4 11 10 8 6 4 4 6 7 5 5 5 6 5 5 5 9 11 16 16 10 11 3 3 4 3 4 2 5 1 6 8 5 7 25 18 20 18 17 18 18 18
8 9 7 10 4 14 13 6 4 2 3 3 5 4 4 4 4 5 4 5 4 7 2 6 7 3 6 3 4 3 6 4 5 3 8 17 20 21 20 19 19 18 17
3 2 7 3 10 11 14 4 2 3 4 3 5 6 2 1 3 3 3 2 2 1 4 4 2 2 3 4 4 3 3 3 4 4 1 14 16 20 19 20 20 18 16
3 5 3 9 7 7 4 4 4 2 3 3 3 3 4 3 2 3 2 3 4 1 5 5 4 2 3 4 3 6 7 7 6 4 4 15 18 16 18 19 17 17 18
4 2 6 6 7 4 3 3 3 2 3 3 3 4 5 3 2 3 4 5 4 3 3 3 4 4 4 3 4 7 11 9 8 9 6 5 19 17 17 15 17 17 19
7 5 5 7 3 6 6 4 3 4 2 3 4 4 4 2 2 3 4 3 3 4 5 5 4 4 2 4 8 8 10 11 7 6 7 3 10 9 6 14 14 14 13
10 9 9 9 9 8 7 6 5 4 5 1 2 2 3 2 1 4 3 3 3 4 3 4 4 5 4 4 3 4 3 5 6 6 3 2 4 5 9 15 9 10 14
8 7 8 9 9 9 8 5 5 7 4 4 2 2 0 4 3 4 2 2 4 4 3 4 4 2 2 5 5 5 4 4 4 4 6 2 2 7 3 6 12 8 10
7 8 8 6 7 8 7 7 7 6 6 5 4 3 2 2 2 4 4 4 4 4 2 3 3 2 1 3 4 6 6 5 4 6 7 4 10 7 6 7 7 4 11
7 7 7 7 6 5 5 6 8 7 5 6 7 7 6 6 4 2 3 3 3 4 3 2 1 1 3 3 3 4 4 7 6 4 6 4 5 5 4 5 3 4 4
7 6 7 7 6 4 3 2 2 3 3 4 6 6 8 9 8 7 6 4 4 2 4 5 3 1 1 1 1 1 5 6 3 3 3 3 4 1 4 5 8 8 5
7 7 6 6 5 4 5 3 4 2 2 3 4 3 5 6 7 3 6 9 7 4 4 4 3 2 3 2 3 3 2 3 3 3 1 2 4 3 4 5 5 6 5
6 8 7 5 4 4 6 3 2 1 2 2 2 5 3 4 6 5 5 7 10 9 5 4 4 2 1 2 3 2 3 4 3 4 3 2 2 5 4 4 5 5 5
9 8 6 6 4 4 5 5 4 4 3 3 3 5 7 6 4 6 6 7 5 4 4 5 5 4 1 1 3 2 2 2 3 3 2 4 3 4 4 5 4 3 4
5 4 2 2 1 3 3 5 6 7 6 3 4 4 5 4 5 7 4 4 3 4 5 4 4 5 3 4 2 3 3 2 3 0 1 2 2 3 3 4 4 3 3
Wind_Direction
98 127 114 114 115 120 124 126 125 120 109 100 86 82 89 94 97 102 104 104 106 107 106 100 91 85 80 75 78 85 88 90 96 100 96 89 84 70 88 78 78 79 80
127 133 116 118 121 125 127 125 125 125 122 124 117 100 93 97 103 102 107 113 112 112 112 108 103 96 92 81 74 80 85 91 96 100 99 94 97 92 84 88 88 85 83
126 129 117 117 122 126 128 131 128 126 120 122 122 115 107 109 110 114 113 114 116 111 110 114 114 110 107 101 82 74 85 97 118 134 122 79 68 110 100 95 95 93 87
132 122 116 118 124 130 135 136 134 133 132 134 135 130 119 116 126 126 126 128 125 124 123 122 119 117 117 115 103 325 40 117 210 220 231 206 148 137 119 114 109 105 101
119 125 129 123 125 126 134 137 138 138 141 144 141 144 137 140 140 138 137 137 142 141 140 138 137 133 131 141 196 290 300 292 281 270 239 211 165 169 133 134 129 134 128
74 85 138 132 130 133 136 139 141 149 152 152 152 155 154 150 159 161 162 161 170 165 164 165 171 183 188 223 255 281 294 304 305 267 250 203 165 177 151 152 147 133 138
130 125 135 135 130 131 136 140 148 153 155 156 159 163 169 170 172 183 186 196 193 200 201 196 202 245 252 257 272 287 296 301 305 293 305 167 160 177 161 158 154 154 157
117 96 92 114 130 140 150 153 158 160 161 166 168 176 178 179 186 191 200 203 213 220 214 216 218 228 268 288 293 292 289 287 296 302 284 178 188 179 170 168 165 165 170
115 135 125 103 130 154 158 151 154 157 167 168 181 183 191 198 201 210 215 217 216 220 219 216 214 229 260 275 284 290 285 283 284 287 295 196 185 191 177 176 175 173 178
55 51 41 4 68 48 24 133 146 155 160 163 189 199 211 219 229 235 237 241 241 234 222 226 224 212 250 306 317 303 294 294 290 279 283 252 187 197 188 186 184 183 180
44 63 62 7 355 232 151 182 171 186 177 179 187 212 229 231 244 242 238 238 236 233 235 232 266 337 329 336 13 11 6 329 295 279 279 260 197 198 198 194 192 193 190
33 86 98 207 7 284 224 175 172 191 199 212 203 208 218 225 234 249 234 234 237 227 226 186 149 205 186 117 103 360 246 309 310 298 295 300 185 189 198 203 200 199 198
126 243 161 82 106 92 320 255 203 198 232 217 217 223 237 236 244 251 252 244 204 230 145 184 165 203 186 169 149 287 285 100 320 328 290 236 171 191 203 205 204 204 204
99 33 40 250 130 134 202 238 328 258 184 204 220 208 189 306 352 26 14 345 182 228 164 185 158 254 188 229 131 218 238 289 206 214 336 274 213 197 202 208 206 205 208
56 60 1 325 49 134 186 256 292 320 315 199 131 134 95 73 68 26 345 45 83 107 157 209 196 181 234 226 208 243 258 260 200 238 210 222 227 218 212 219 209 206 210
123 215 234 305 302 73 137 153 268 310 243 101 91 73 66 71 54 53 11 50 30 47 135 185 201 193 215 243 280 260 274 277 202 223 231 249 233 214 223 230 212 212 218
93 115 108 194 355 34 7 348 287 229 266 138 114 91 95 83 27 53 76 55 16 12 31 44 46 98 153 219 229 244 248 263 291 252 244 227 240 248 269 245 236 228 242
41 34 40 36 23 16 2 358 353 357 20 359 118 155 188 178 77 31 75 63 29 23 34 62 35 16 10 346 319 279 283 265 286 311 165 229 185 208 227 253 244 236 224
55 49 55 41 15 359 345 346 342 332 352 328 89 213 316 145 90 49 49 46 28 21 38 45 30 74 343 325 320 319 300 307 311 326 291 187 332 26 359 26 51 304 278
68 66 70 48 27 20 18 4 0 3 347 331 338 201 172 27 63 61 24 9 3 21 23 21 43 344 308 303 321 323 315 320 336 342 325 81 107 117 86 87 89 94 49
110 103 97 81 36 45 23 13 7 2 345 345 11 335 23 37 35 33 48 29 23 32 348 345 286 336 321 340 3 331 317 298 340 19 49 37 59 78 63 80 99 91 38
124 118 104 115 112 111 92 116 107 349 352 328 343 350 352 357 357 11 357 356 4 350 321 312 293 233 254 333 275 346 337 335 351 21 22 127 112 105 76 57 40 29 39
163 164 165 166 141 125 116 47 3 356 352 3 327 285 317 317 279 326 329 316 307 275 271 262 269 262 248 285 202 160 337 262 329 310 33 13 33 45 64 77 56 32 8
203 177 179 142 156 146 119 105 93 191 271 267 289 296 303 281 313 290 279 252 239 263 269 225 257 232 210 263 335 242 218 196 256 326 330 19 111 100 83 64 53 34 13
24 48 112 172 166 158 163 174 182 210 223 257 305 321 320 314 289 280 258 278 282 282 249 236 261 251 227 204 196 267 313 303 242 191 277 327 37 29 53 53 47 31 34
70 58 41 345 185 253 228 225 220 224 232 234 248 273 277 279 285 293 336 351 358 4 352 315 311 324 294 272 237 229 187 215 280 252 73 283 162 68 64 63 38 21 55